Погода в Маразе

Погода в Маразе : погода сейчас, прогноз погоды и архив. Всё, что Вы хотите узнать о погоде в Маразе!

Поиск расширенной информации на нашем сайте:

Другие новости

Новости СМИ2

Главная страница сайта

Новости сайта

03.07.2017

Напоминаем, что на нашем специализированном сайте Метеоцентр.Азия вы можете получить высокодетализированные автоматические прогнозы погоды по пунктам России, СНГ и мира в авиационном формате (включающие направление и скорость ветра, видимость, явления погоды, количество и форму облачности, нижнюю и верхнюю границу облачности).


Погода в Маразе - сегодня

Время (UTC), дата Ветер
(°,м/с) 
Видим.   Явления Облачность Т
(°С)
Тd
(°С)
f(%) Тe
(°С)
Pmin
(гПа)
dP
(гПа)
Po
(мм)
O2
(г/м3)
Тmin Tmax R s Состояние
почвы
12 19.02.18 240 (ЮЗ) 0200 м  туман  ?/?  
+1.4 +1.4 100 1019  -0.1  696  279           
15 19.02.18 260 (З) 0200 м  туман  ?/?  
+0.9 +0.9 100 1020.1  0.9  697  280           
21 19.02.18 260 (З) 0500 м  слаб. дождь{туман}  ?/?  
+1 +1 100 1021.4  698  280           
00 20.02.18 260 (З) 0500 м  туман{дождь}  ?/?  
+0.9 +0.9 100 1021.5  0.1  698  280           
03 20.02.18 240 (ЮЗ) 0500 м  туман  ?/?  
+0.8 +0.8 100 1021.6  0.1  698  280           
09 20.02.18 270 (З) 20000 м  {туман}  10/10 600 м 
[Frnb]
+2.6 +1.6 93 +1  1021.2  -0.2  698  278           
12 20.02.18 260 (З) 0500 м  туман  ?/?  
+2.4 +2.4 100 1020.4  -0.8  698  278           
21 20.02.18 тихо ()   10 км    10/10 600 м 
[Frnb]
+1.6 +0.5 92 +2  1021.6  -0.4  698  279           
00 21.02.18 260 (З) 10 км  слаб. дождь  10/10 600 м 
[Ns]
+1.5 +0.4 92 +1  1021.8  0.2  698  280           
03 21.02.18 230 (ЮЗ) 10 км  {дождь}  10/10 600 м 
[Frnb]
+1.7 +0.9 94 +1  1022  0.2  699  279           
06 21.02.18 260 (З) 4000 м  дымка{дождь}  10/10 300 м 
[Frnb]
+2.8 +2.3 97 +2  1022.3  0.7  699  278  +1    0.8     
09 21.02.18 250 (З) 4000 м  дождь  10/10 300 м 
[Ns]
+4 +3.3 95 +4  1021.7  -0.2  699  277           
12 21.02.18 210 (ЮЗ) 20000 м  {дождь}  10/10 600 м 
[Frnb]
+4.3 +3.3 93 +4  1020.3  -1.2  698  276           
15 21.02.18 200 (Ю) 10 км    10/10 600 м 
[Frnb]
+3.1 +2.1 93 +4  1020.6  -0.1  698  278           
18 21.02.18 250 (З) 4000 м  дымка  10/10 300 м 
[Frnb]
+2.7 +2.2 96 +2  1022  1.2  699  278    +4.9  0.3     
21 21.02.18 240 (ЮЗ) 10 км    10/10 600 м 
[Frnb]
+2.6 +1.6 93 +1  1022.1  699  279           
00 22.02.18 270 (З) 10 км    10/10 600 м 
[Frnb]
+2.8 +1.5 91 +2  1020.9  -1  698  278           
03 22.02.18 240 (ЮЗ) 10 км    10/10 600 м 
[Frnb]
+2.5 +1.5 93 +1  1020.5  -0.5  698  278           
06 22.02.18 260 (З) 20000 м    10/10 600 м 
[Frnb]
+3.9 +2.7 92 +3  1018.6  -1.3  697  276  +1.9         
09 22.02.18 230 (ЮЗ) 20000 м    10/10 600 м 
[Frnb]
+4.2 +3 92 +4  1017.6  -0.8  696  276           
12 22.02.18 250 (З) 20000 м    10/10 600 м 
[Frnb]
+4 +2.8 92 +2  1016.4  -1.2  695  276           
15 22.02.18 230 (ЮЗ) 10 км    10/10 600 м 
[Frnb]
+3.4 +2.4 93 +3  1016.4  -0.2  695  276           
21 22.02.18 тихо ()   10 км  слаб. дождь  10/10 600 м 
[Ns]
+2.9 +1.9 93 +3  1018.1  0.2  696  277           
00 23.02.18 тихо ()   0500 м  слаб. дождь{туман}  ?/?  
+2.2 +2.2 100 +2  1018.3  -0.1  696  278           
03 23.02.18 100 (В) 0500 м  туман{дождь}  ?/?  
+1.9 +1.9 100 +3  1017.3  -0.9  695  278           
Время (UTC), дата Ветер
(°,м/с) 
Видим.   Явления Облачность Т
(°С)
Тd
(°С)
f(%) Тe
(°С)
Pmin
(гПа)
dP
(гПа)
Po
(мм)
O2
(г/м3)
Тmin Tmax R s Состояние
почвы

Для получения пояснительной информации подведите курсор к названию столбца.

ПОГОДА в Маразе - архив

Всё, что Вы хотите узнать о погоде в Маразе - удобно и подробно!

Выберите нужную дату (начиная с 1 января 2015* года) и нажмите кнопку "Найти".
Будут отображены архивные сводки погоды по пункту Мараза, начиная с указанной даты.


Отображать данные в формате CSV (для использования в таблицах Excel)


Внимание! Наш архив погоды предназначен исключительно для личного некоммерческого использования в познавательных целях. Если Вам необходимы официальные справки о состоянии погоды (для производственных, юридических, коммерческих и т.п. целей), обращайтесь в органы Росгидромета.

*Примечание: данная дата относится к архиву по метеостанциям СССР (Россия, СНГ, Балтия).
Архив по метеостанциям Зарубежной Европы и Азии (кроме Китая) хранится 10 дней, по другим регионам земного шара (Китай, Африка, Америка, Австралия, Океания) - 1 день.

Мараза - район местоположения метеостанции


Название, широта, долгота, высота метеостанции:
Мараза 40.5°ш. 48.9°д. 755 м над ур. моря [Азербайджан]

Дополнительная информация

В oтличие oт бoльшинства пoгoдных сайтoв мы публикуем пoдрoбную метеoинфoрмацию в детальнoм прoфессиoнальнoм фoрмате.

Характеристики температуры и влажнoсти вoздуха измеряются на высoте 2 м в тени вдали oт зданий и деревьев.
Скoрoсть ветра измеряется на высoте 10 м (на урoвне рoста челoвека скoрoсть ветра ниже в 1.5-2 раза). Если метеoстанция нахoдится в гoрoде или в лесу, тo скoрoсть ветра занижена на 2-4 м/с пo сравнению с oткрытым местoм. Скoрoсть ветра над акватoриями крупных рек и oзёр, а также на вершинах хoлмoв на 2-5 м/с выше, чем в oбычных услoвиях.
Атмoсфернoе давление в разных тoчках местнoсти мoжет значительнo oтличаться oт давления на метеoстанции, в зависимoсти oт услoвий рельефа (при пoдъёме на 10 м давление пoнижается примернo на 1 мм рт.ст.).